Simultaneous Nadir Overpasses (SNOs) Predictions

Prediction of SNOs between AQUA and NOAA-19 Satellite Orbit:

Table of predicted SNOs for the next 14.0 days since TLE Epoch: 1/16/2021
Index Date (AQUA) Time (AQUA) Lat,Lon (AQUA) SZA (AQUA ) Date (NOAA-19) Time (NOAA-19) Lat,Lon (NOAA-19) SZA (NOAA-19 ) Distance(km) Time Diff (sec)
1 01/16/2021 20:04:34 79.20,-146.12 101.07 01/16/2021 20:03:29 79.19,-146.17 101.09 1.58 65
2 01/16/2021 20:54:01 -79.23, 21.36 78.91 01/16/2021 20:54:23 -79.23, 21.47 78.92 2.22 22
3 01/19/2021 02:27:44 79.20, 118.08 100.63 01/19/2021 02:27:42 79.20, 117.93 100.64 3.26 2
4 01/21/2021 08:01:27 -79.19,-145.26 79.87 01/21/2021 08:00:50 -79.20,-145.27 79.85 0.85 37
5 01/21/2021 08:50:54 79.21, 22.25 100.16 01/21/2021 08:51:54 79.23, 22.27 100.16 2.52 60
6 01/23/2021 13:35:10 79.18, -48.63 99.62 01/23/2021 13:34:08 79.19, -48.58 99.65 1.49 62
7 01/23/2021 14:24:36 -79.19, 118.92 80.37 01/23/2021 14:25:02 -79.20, 118.80 80.37 2.76 26
8 01/25/2021 19:58:19 79.19,-144.48 99.09 01/25/2021 19:58:20 79.19,-144.55 99.10 1.34 1
9 01/28/2021 01:32:02 -79.17, -47.81 81.50 01/28/2021 01:31:28 -79.19, -47.70 81.48 3.20 34



Historial Predications of SNOs between AQUA and NOAA-19
